Regional Weather Roundup
Issued by NWS Goodland, KS

Home | Current Version | Previous Version | Graphics & Text | Print | Product List | Glossary On
Versions: 1 2 3 4 5 6 7 8 9 10 11 12 13 14 15 16 17 18 19 20 21 22 23 24 25 26 27 28 29 30 31 32 33 34 35 36 37 38 39 40 41 42 43 44 45 46 47 48 49 50
000
ASUS43 KGLD 281959
RWRGLD

GOODLAND FORECAST AREA HOURLY WEATHER ROUNDUP
NATIONAL WEATHER SERVICE GOODLAND KS
200 PM MDT SUN MAY 28 2017

...OFFICIAL OBSERVATIONS...

CITY           SKY/WX    TMP DP  RH WIND       PRES   REMARKS
GOODLAND KS    MOSUNNY   71  41  33 N9G17     30.15F
HILL CITY KS   MOSUNNY   81  40  23 N12G18    30.08F
IMPERIAL NEB   MOSUNNY   79  35  20 NW16G25   30.10F
MCCOOK NEB     MOSUNNY   80  40  23 NW17G23   30.06F
AKRON CO       MOSUNNY   67  33  28 NW7       30.20F
BURLINGTON CO  MOSUNNY   73  40  30 N8G17     30.19F
LIMON CO       MOSUNNY   64  35  34 NW12G25   30.26F
$$

...UNOFFICIAL OBSERVATIONS...

CITY           SKY/WX    TMP DP  RH WIND       PRES   REMARKS
LENORA KS        N/A     75  32  20 MISG        N/A
NORTON KS      PTSUNNY   73  39  29 W15G21    30.06F
SHARON SPRINGS   N/A     74  44  34 NE10G18     N/A
TRENTON NEB      N/A     73  32  22 NW7         N/A
$$




USA.gov is the U.S. government's official web portal to all federal, state and local government web resources and services.